QPF
0.00 0.00 0.00 0.00 0.00 0.00 0.00 0.00 0.00 0.00 0.00 0.00 0.00 0.00 0.00 0.00 0.00 0.00 0.00 0.00 0.00 0.00 0.01 0.04 0.07 0.04 0.03 0.04 0.01 0.00 0.00 0.00 0.00 0.00 0.00 0.00 0.00 0.00 0.00 0.00 0.00 0.00 0.00
0.00 0.00 0.00 0.00 0.00 0.00 0.00 0.00 0.00 0.00 0.00 0.00 0.00 0.00 0.00 0.00 0.00 0.00 0.00 0.00 0.00 0.00 0.01 0.04 0.04 0.03 0.07 0.06 0.08 0.03 0.00 0.00 0.00 0.00 0.00 0.00 0.00 0.00 0.00 0.00 0.00 0.00 0.00
0.00 0.00 0.00 0.00 0.00 0.00 0.00 0.00 0.00 0.00 0.00 0.00 0.00 0.00 0.00 0.00 0.00 0.00 0.00 0.00 0.00 0.00 0.00 0.04 0.05 0.09 0.07 0.02 0.01 0.01 0.00 0.00 0.00 0.00 0.00 0.00 0.00 0.00 0.00 0.00 0.00 0.00 0.00
0.00 0.00 0.00 0.00 0.00 0.00 0.00 0.00 0.00 0.00 0.00 0.00 0.00 0.00 0.00 0.00 0.00 0.00 0.00 0.00 0.00 0.00 0.00 0.06 0.09 0.06 0.10 0.04 0.03 0.00 0.00 0.00 0.00 0.00 0.00 0.00 0.00 0.00 0.00 0.00 0.00 0.00 0.00
0.00 0.00 0.00 0.00 0.00 0.00 0.00 0.00 0.00 0.00 0.00 0.00 0.00 0.00 0.00 0.00 0.00 0.00 0.00 0.00 0.00 0.00 0.00 0.05 0.07 0.02 0.03 0.02 0.06 0.05 0.00 0.00 0.00 0.00 0.00 0.00 0.00 0.00 0.00 0.00 0.00 0.00 0.00
0.00 0.00 0.00 0.00 0.00 0.00 0.00 0.00 0.00 0.00 0.00 0.00 0.00 0.00 0.00 0.00 0.00 0.00 0.00 0.00 0.00 0.00 0.00 0.00 0.01 0.03 0.03 0.02 0.05 0.08 0.02 0.00 0.00 0.00 0.00 0.00 0.00 0.00 0.00 0.00 0.00 0.00 0.00
0.00 0.00 0.00 0.00 0.00 0.00 0.00 0.00 0.00 0.00 0.00 0.00 0.00 0.00 0.00 0.00 0.00 0.00 0.00 0.00 0.00 0.00 0.00 0.00 0.00 0.00 0.01 0.00 0.02 0.06 0.05 0.01 0.00 0.00 0.00 0.00 0.00 0.00 0.00 0.00 0.00 0.00 0.00
0.00 0.00 0.00 0.00 0.00 0.00 0.00 0.00 0.00 0.00 0.00 0.00 0.00 0.00 0.00 0.00 0.00 0.00 0.00 0.00 0.00 0.00 0.00 0.00 0.00 0.00 0.00 0.00 0.00 0.01 0.01 0.01 0.00 0.00 0.00 0.00 0.00 0.00 0.00 0.00 0.00 0.00 0.00
0.00 0.00 0.00 0.00 0.00 0.00 0.00 0.00 0.00 0.00 0.00 0.00 0.00 0.00 0.00 0.00 0.00 0.00 0.00 0.00 0.00 0.00 0.00 0.00 0.00 0.00 0.00 0.00 0.00 0.00 0.00 0.00 0.00 0.00 0.00 0.00 0.00 0.00 0.00 0.00 0.00 0.00 0.00
0.00 0.00 0.00 0.00 0.00 0.00 0.00 0.00 0.00 0.00 0.00 0.00 0.00 0.00 0.00 0.00 0.00 0.00 0.00 0.00 0.00 0.00 0.00 0.00 0.00 0.00 0.00 0.00 0.00 0.00 0.00 0.00 0.00 0.00 0.00 0.00 0.00 0.00 0.00 0.00 0.00 0.00 0.00
0.00 0.00 0.00 0.00 0.00 0.00 0.00 0.00 0.00 0.00 0.00 0.00 0.00 0.00 0.00 0.00 0.00 0.00 0.00 0.00 0.00 0.00 0.00 0.00 0.00 0.00 0.00 0.00 0.00 0.00 0.00 0.00 0.00 0.00 0.00 0.00 0.00 0.00 0.00 0.00 0.00 0.00 0.00
0.00 0.00 0.00 0.00 0.00 0.00 0.00 0.00 0.00 0.00 0.00 0.00 0.00 0.00 0.00 0.00 0.00 0.00 0.00 0.00 0.00 0.00 0.00 0.00 0.00 0.00 0.00 0.00 0.00 0.00 0.00 0.00 0.00 0.00 0.00 0.00 0.00 0.00 0.00 0.00 0.00 0.00 0.00
0.00 0.00 0.00 0.00 0.00 0.00 0.00 0.00 0.00 0.00 0.00 0.00 0.00 0.00 0.00 0.00 0.00 0.00 0.00 0.00 0.00 0.00 0.00 0.00 0.00 0.00 0.00 0.00 0.00 0.00 0.00 0.00 0.00 0.00 0.00 0.00 0.00 0.00 0.00 0.00 0.00 0.00 0.00
0.00 0.00 0.00 0.00 0.00 0.00 0.00 0.00 0.00 0.00 0.00 0.00 0.00 0.00 0.00 0.00 0.00 0.00 0.00 0.00 0.00 0.00 0.00 0.00 0.00 0.00 0.00 0.00 0.00 0.00 0.00 0.00 0.00 0.00 0.00 0.00 0.00 0.00 0.00 0.00 0.00 0.00 0.00
0.00 0.00 0.00 0.00 0.00 0.00 0.00 0.00 0.00 0.00 0.00 0.00 0.00 0.00 0.00 0.00 0.00 0.00 0.00 0.00 0.00 0.00 0.00 0.00 0.00 0.00 0.00 0.00 0.00 0.00 0.00 0.00 0.00 0.00 0.00 0.00 0.00 0.00 0.00 0.00 0.00 0.00 0.00
0.00 0.00 0.00 0.00 0.00 0.00 0.00 0.00 0.00 0.00 0.00 0.00 0.00 0.00 0.00 0.00 0.00 0.00 0.00 0.00 0.00 0.00 0.00 0.00 0.00 0.00 0.00 0.00 0.00 0.00 0.00 0.00 0.00 0.00 0.00 0.00 0.00 0.00 0.00 0.00 0.00 0.00 0.00
0.00 0.00 0.00 0.00 0.00 0.00 0.00 0.00 0.00 0.00 0.00 0.00 0.00 0.00 0.00 0.00 0.00 0.00 0.00 0.00 0.00 0.00 0.00 0.00 0.00 0.00 0.00 0.00 0.00 0.00 0.00 0.00 0.00 0.00 0.00 0.00 0.00 0.00 0.00 0.00 0.00 0.00 0.00
0.00 0.00 0.00 0.00 0.00 0.00 0.00 0.00 0.00 0.00 0.00 0.00 0.00 0.00 0.00 0.00 0.00 0.00 0.00 0.00 0.00 0.00 0.00 0.00 0.00 0.00 0.00 0.00 0.00 0.00 0.00 0.00 0.00 0.00 0.00 0.00 0.00 0.00 0.00 0.00 0.00 0.00 0.00
0.00 0.00 0.00 0.00 0.00 0.00 0.00 0.00 0.00 0.00 0.00 0.00 0.00 0.00 0.00 0.00 0.00 0.00 0.00 0.00 0.00 0.00 0.00 0.00 0.00 0.00 0.00 0.00 0.00 0.00 0.00 0.00 0.00 0.00 0.00 0.00 0.00 0.00 0.00 0.00 0.00 0.00 0.00
0.00 0.00 0.00 0.00 0.00 0.00 0.00 0.00 0.00 0.00 0.00 0.00 0.00 0.00 0.00 0.00 0.00 0.00 0.00 0.00 0.00 0.00 0.00 0.00 0.00 0.00 0.00 0.00 0.00 0.00 0.00 0.00 0.00 0.00 0.00 0.00 0.00 0.00 0.00 0.00 0.00 0.00 0.00
0.00 0.00 0.00 0.00 0.00 0.00 0.00 0.00 0.00 0.00 0.00 0.00 0.00 0.00 0.00 0.00 0.00 0.00 0.00 0.00 0.00 0.00 0.00 0.00 0.00 0.00 0.00 0.00 0.00 0.00 0.00 0.00 0.00 0.00 0.00 0.00 0.00 0.00 0.00 0.00 0.00 0.00 0.00
0.00 0.00 0.00 0.00 0.00 0.00 0.00 0.00 0.00 0.00 0.00 0.00 0.00 0.00 0.00 0.00 0.00 0.00 0.00 0.00 0.00 0.00 0.00 0.00 0.00 0.00 0.00 0.00 0.00 0.00 0.00 0.00 0.00 0.00 0.00 0.00 0.00 0.00 0.00 0.00 0.00 0.00 0.00
0.00 0.00 0.00 0.00 0.00 0.00 0.00 0.00 0.00 0.00 0.00 0.00 0.00 0.00 0.00 0.00 0.00 0.00 0.00 0.00 0.00 0.00 0.00 0.00 0.00 0.00 0.00 0.00 0.00 0.00 0.00 0.00 0.00 0.00 0.00 0.00 0.00 0.00 0.00 0.00 0.00 0.00 0.00
0.00 0.02 0.01 0.00 0.00 0.00 0.00 0.00 0.00 0.00 0.00 0.00 0.00 0.00 0.00 0.00 0.00 0.00 0.00 0.00 0.00 0.00 0.00 0.00 0.00 0.00 0.00 0.00 0.00 0.00 0.00 0.00 0.00 0.00 0.00 0.00 0.00 0.00 0.00 0.00 0.00 0.00 0.02
0.03 0.01 0.03 0.02 0.01 0.00 0.00 0.00 0.00 0.00 0.00 0.00 0.00 0.00 0.00 0.00 0.00 0.00 0.00 0.00 0.00 0.00 0.00 0.00 0.00 0.00 0.00 0.00 0.00 0.00 0.00 0.00 0.00 0.00 0.00 0.00 0.00 0.00 0.00 0.00 0.00 0.01 0.02
0.12 0.13 0.04 0.01 0.00 0.00 0.00 0.00 0.00 0.00 0.00 0.00 0.00 0.00 0.00 0.00 0.00 0.00 0.00 0.01 0.01 0.00 0.00 0.00 0.01 0.00 0.00 0.00 0.00 0.00 0.00 0.00 0.00 0.00 0.00 0.00 0.00 0.00 0.00 0.00 0.00 0.00 0.01
MSLP
1010.28 1011.29 1012.17 1012.92 1013.57 1014.39 1015.28 1016.17 1016.74 1017.28 1017.83 1018.03 1018.09 1018.11 1018.09 1018.43 1018.59 1018.62 1019.13 1019.50 1019.67 1020.02 1020.23 1020.43 1020.62 1020.89 1020.69 1020.64 1020.93 1020.90 1021.10 1020.81 1021.03 1020.82 1020.77 1021.03 1021.21 1021.26 1021.17 1021.05 1021.01 1021.44 1021.42
1009.51 1010.53 1011.43 1012.16 1012.89 1013.75 1014.67 1015.67 1016.38 1017.05 1017.62 1017.66 1017.75 1017.72 1017.90 1018.01 1018.12 1018.25 1018.81 1019.08 1019.45 1019.84 1019.94 1020.20 1020.32 1020.49 1020.74 1021.08 1021.17 1021.07 1020.60 1020.74 1021.05 1020.22 1020.18 1020.26 1020.78 1020.73 1020.78 1020.98 1021.05 1021.17 1021.12
1008.46 1009.67 1010.58 1011.31 1012.16 1012.97 1014.01 1014.99 1015.88 1016.55 1017.20 1017.29 1017.67 1017.96 1018.06 1018.11 1018.35 1018.37 1018.58 1018.81 1019.22 1019.56 1019.82 1020.17 1020.21 1020.69 1020.61 1020.63 1020.94 1020.99 1020.87 1020.47 1021.07 1021.19 1020.65 1020.32 1020.03 1020.28 1020.74 1021.06 1020.85 1021.12 1020.94
1007.69 1008.66 1009.60 1010.42 1011.12 1012.14 1013.32 1014.35 1015.36 1016.08 1016.70 1017.14 1017.14 1017.46 1017.35 1017.39 1017.53 1017.87 1018.01 1018.40 1019.00 1019.31 1019.57 1020.04 1020.28 1020.61 1020.68 1020.71 1020.70 1020.64 1020.73 1020.79 1020.58 1021.08 1021.05 1021.21 1020.89 1019.99 1019.91 1020.37 1020.54 1020.89 1020.90
1006.34 1007.17 1008.29 1009.33 1010.26 1011.43 1012.40 1013.58 1014.74 1015.55 1015.99 1016.54 1016.71 1017.11 1017.19 1017.01 1017.34 1017.61 1017.97 1018.37 1018.76 1019.06 1019.26 1019.83 1020.01 1020.25 1020.29 1020.50 1020.77 1020.90 1020.93 1020.82 1020.33 1020.41 1020.71 1021.05 1020.83 1020.97 1019.97 1019.39 1019.83 1020.29 1020.37
1005.11 1006.19 1007.38 1008.60 1009.53 1010.60 1011.59 1012.57 1013.69 1014.74 1015.49 1015.97 1016.56 1016.71 1016.75 1016.82 1016.93 1017.42 1017.59 1017.89 1018.14 1018.65 1019.13 1019.42 1019.75 1019.94 1020.10 1020.32 1020.40 1020.71 1020.93 1020.84 1020.86 1020.67 1020.80 1020.43 1020.11 1019.89 1019.99 1019.76 1019.76 1019.80 1019.82
1003.93 1005.11 1006.15 1007.21 1008.45 1009.41 1010.52 1011.53 1012.60 1013.57 1014.51 1015.20 1015.75 1016.29 1016.65 1016.95 1016.99 1017.32 1017.47 1017.34 1017.50 1017.72 1018.40 1019.16 1019.50 1019.43 1019.86 1019.89 1020.24 1020.73 1020.85 1020.91 1020.85 1021.14 1020.67 1020.67 1020.58 1020.46 1020.33 1020.20 1019.66 1019.65 1019.50
1002.57 1003.81 1004.90 1006.06 1007.20 1008.30 1009.49 1010.57 1011.50 1012.61 1013.40 1014.19 1014.89 1015.60 1016.16 1016.33 1016.66 1017.01 1016.81 1017.09 1017.08 1017.27 1017.61 1018.55 1018.86 1019.14 1019.34 1019.65 1019.97 1020.19 1020.32 1020.37 1020.73 1020.93 1021.01 1020.46 1020.40 1020.47 1020.41 1020.25 1020.05 1019.51 1019.02
1001.23 1002.40 1003.69 1004.93 1006.01 1007.16 1008.17 1009.21 1010.28 1011.51 1012.38 1013.15 1014.05 1014.74 1015.33 1015.81 1015.80 1016.20 1016.69 1016.81 1017.04 1016.93 1017.39 1017.85 1018.44 1018.65 1018.93 1019.24 1019.55 1019.71 1019.97 1020.13 1020.55 1020.51 1020.81 1020.78 1020.17 1020.26 1020.32 1020.35 1020.23 1019.99 1019.25
1000.33 1001.37 1002.57 1003.70 1004.79 1005.87 1007.05 1008.47 1009.56 1010.28 1011.07 1012.16 1013.04 1013.71 1014.31 1015.02 1015.55 1015.87 1016.19 1016.43 1016.52 1016.93 1016.97 1017.62 1017.93 1018.23 1018.43 1018.77 1019.27 1019.31 1019.64 1019.91 1020.01 1020.03 1020.19 1020.49 1020.00 1020.09 1020.21 1020.14 1020.07 1020.03 1019.78
999.21 1000.17 1001.19 1002.28 1003.38 1004.58 1005.85 1006.91 1008.19 1009.27 1010.09 1010.82 1011.73 1012.53 1013.23 1013.97 1014.80 1015.29 1015.67 1016.12 1016.42 1016.56 1016.90 1017.17 1017.50 1017.78 1018.05 1018.39 1018.83 1019.10 1019.03 1019.47 1019.68 1019.77 1019.85 1020.14 1020.20 1019.85 1019.58 1019.78 1019.83 1019.69 1019.59
998.09 999.17 1000.00 1001.23 1002.35 1003.40 1004.41 1005.53 1006.57 1007.72 1008.60 1009.33 1010.49 1011.39 1012.18 1013.02 1013.72 1014.49 1014.97 1015.49 1015.90 1016.20 1016.47 1016.75 1017.10 1017.31 1017.51 1017.87 1018.32 1018.60 1018.57 1018.99 1019.12 1019.25 1019.46 1019.59 1019.60 1019.82 1019.82 1019.54 1019.56 1019.34 1019.31
997.13 998.20 999.12 999.99 1001.03 1002.03 1003.07 1003.93 1005.22 1006.03 1007.08 1008.29 1009.31 1010.29 1011.17 1011.99 1012.59 1013.33 1014.08 1014.77 1015.25 1015.62 1015.86 1016.19 1016.51 1016.76 1016.95 1017.28 1017.66 1017.97 1018.15 1018.30 1018.47 1018.63 1018.77 1018.91 1019.11 1019.19 1019.05 1019.14 1018.99 1018.81 1019.02
996.89 997.55 998.24 998.87 999.99 1000.93 1001.94 1002.75 1003.67 1004.72 1005.74 1007.00 1008.01 1008.95 1009.85 1010.70 1011.47 1012.20 1013.06 1013.74 1014.35 1014.82 1015.16 1015.48 1015.89 1016.22 1016.41 1016.65 1017.01 1017.32 1017.54 1017.66 1017.78 1018.00 1018.13 1018.28 1018.40 1018.51 1018.72 1018.89 1018.89 1018.87 1018.71
997.11 997.43 997.86 998.40 999.22 1000.17 1000.93 1002.11 1003.06 1003.89 1004.58 1005.69 1006.75 1007.59 1008.52 1009.51 1010.44 1011.29 1012.07 1012.78 1013.35 1013.79 1014.25 1014.69 1015.15 1015.55 1015.79 1015.89 1016.30 1016.61 1016.82 1017.07 1017.20 1017.28 1017.45 1017.61 1017.79 1017.99 1018.17 1018.12 1017.99 1018.07 1018.07
997.36 997.53 997.73 998.09 998.81 999.51 1000.14 1001.05 1002.00 1002.63 1003.66 1004.44 1005.37 1006.46 1007.71 1008.58 1009.37 1010.27 1011.09 1011.87 1012.44 1012.93 1013.43 1013.75 1014.18 1014.66 1014.86 1014.98 1015.51 1015.99 1016.14 1016.39 1016.55 1016.59 1016.70 1016.87 1017.11 1017.45 1017.78 1018.01 1018.05 1018.08 1017.85
998.08 998.03 997.95 997.82 998.02 998.62 999.27 1000.05 1000.80 1001.94 1002.91 1003.74 1004.95 1005.81 1006.77 1007.65 1008.41 1009.23 1010.12 1010.76 1011.41 1012.05 1012.56 1012.98 1013.36 1013.67 1014.07 1014.33 1014.85 1015.39 1015.72 1015.62 1015.74 1015.91 1016.04 1016.06 1015.89 1016.33 1016.69 1016.90 1017.22 1017.36 1017.28
998.85 998.66 998.26 997.88 997.77 997.79 998.32 999.77 1000.73 1001.51 1002.39 1003.36 1004.32 1005.09 1006.04 1006.85 1007.66 1008.37 1009.00 1009.80 1010.44 1010.99 1011.55 1012.10 1012.52 1012.87 1013.10 1013.59 1014.22 1014.73 1015.19 1015.16 1015.09 1015.09 1015.25 1015.44 1015.50 1015.63 1015.79 1015.91 1015.87 1015.81 1015.70
999.43 998.96 998.63 998.00 997.63 997.61 997.59 998.58 999.93 1000.94 1001.81 1002.57 1003.42 1004.18 1005.00 1005.99 1006.74 1007.42 1008.10 1008.81 1009.51 1010.08 1010.51 1011.00 1011.48 1011.89 1012.21 1012.65 1013.32 1014.18 1014.49 1014.31 1014.23 1014.28 1014.43 1014.58 1014.69 1014.94 1015.31 1015.53 1015.25 1015.02 1014.67
999.81 999.02 998.11 997.27 997.01 997.01 996.99 997.53 998.88 999.92 1000.65 1001.42 1002.09 1003.19 1004.12 1004.91 1005.61 1006.34 1007.07 1007.78 1008.51 1008.85 1009.31 1009.81 1010.36 1010.81 1011.27 1011.93 1012.53 1013.33 1013.46 1013.05 1013.07 1013.25 1013.41 1013.73 1014.00 1014.25 1014.67 1014.84 1014.68 1014.23 1014.01
999.64 998.16 996.86 996.02 995.60 996.10 996.05 996.54 997.91 998.50 999.23 1001.01 1001.96 1002.82 1003.63 1004.14 1004.92 1005.73 1006.31 1006.85 1007.51 1007.85 1008.50 1008.83 1009.28 1009.76 1010.36 1010.87 1011.56 1012.34 1012.64 1012.06 1011.88 1011.86 1011.80 1012.10 1012.56 1013.30 1013.81 1014.25 1014.27 1013.95 1013.93
999.15 996.53 995.17 994.75 994.52 994.87 995.36 996.21 997.23 998.28 999.63 1000.40 1001.12 1001.99 1002.85 1003.53 1004.31 1005.20 1005.85 1006.41 1006.93 1007.45 1007.77 1008.27 1008.45 1008.65 1009.31 1009.92 1010.48 1011.15 1011.67 1011.61 1011.37 1011.02 1010.82 1011.19 1011.75 1012.42 1012.92 1013.42 1013.73 1013.87 1014.07
1000.04 997.78 995.95 995.17 995.04 995.15 995.51 996.74 997.87 998.74 999.59 1000.21 1000.89 1001.53 1002.34 1002.96 1003.57 1004.58 1005.30 1005.87 1006.41 1006.53 1007.06 1007.16 1007.35 1007.39 1007.65 1008.55 1009.21 1009.98 1010.74 1011.21 1011.53 1010.93 1010.74 1011.21 1011.70 1012.17 1012.57 1012.75 1013.06 1013.48 1013.77
1001.62 1000.04 998.61 997.67 996.77 996.35 996.68 997.25 997.96 998.61 999.04 999.91 1000.61 1001.22 1002.11 1002.70 1003.20 1004.10 1004.87 1005.24 1005.29 1005.76 1005.78 1005.98 1006.00 1006.29 1006.55 1006.82 1007.39 1009.07 1010.11 1010.62 1011.05 1011.11 1010.93 1011.09 1011.45 1011.85 1012.10 1012.18 1012.68 1013.06 1013.25
1002.57 1001.60 1000.57 999.74 999.23 998.74 998.61 998.41 998.26 998.77 998.75 999.58 1000.01 1000.59 1001.41 1002.52 1003.38 1004.14 1005.30 1005.03 1004.66 1005.23 1005.59 1005.38 1005.42 1005.60 1005.81 1006.00 1006.63 1007.22 1007.97 1008.81 1009.55 1009.97 1010.27 1010.35 1010.77 1011.10 1011.46 1011.78 1012.10 1012.35 1012.58
1003.52 1002.59 1001.91 1001.03 1000.54 1000.21 999.88 999.47 999.09 998.69 998.96 999.49 999.51 999.66 1000.45 1001.47 1002.57 1003.80 1005.30 1006.45 1007.03 1007.07 1006.11 1005.77 1005.73 1005.96 1006.44 1006.62 1006.97 1007.69 1008.26 1008.68 1009.37 1010.11 1009.94 1010.22 1010.57 1010.88 1011.20 1011.47 1011.81 1012.03 1012.18
Thickness
5791 5789 5788 5787 5785 5781 5776 5772 5771 5771 5770 5769 5770 5773 5774 5776 5777 5776 5773 5770 5768 5766 5763 5762 5761 5759 5763 5765 5763 5763 5760 5762 5763 5762 5762 5761 5761 5761 5762 5763 5763 5760 5761
5793 5790 5790 5791 5788 5783 5780 5776 5774 5773 5771 5773 5774 5778 5778 5780 5781 5781 5777 5776 5773 5770 5769 5766 5766 5765 5765 5763 5764 5764 5766 5765 5766 5766 5765 5756 5760 5766 5767 5765 5765 5764 5765
5795 5791 5791 5794 5792 5788 5783 5780 5778 5776 5775 5777 5775 5776 5778 5779 5778 5780 5781 5780 5777 5774 5773 5770 5770 5766 5768 5769 5768 5768 5767 5766 5766 5767 5765 5756 5753 5763 5767 5766 5770 5769 5769
5804 5799 5795 5795 5797 5793 5788 5784 5781 5779 5778 5778 5780 5777 5778 5776 5783 5784 5787 5785 5782 5778 5776 5773 5771 5769 5769 5770 5771 5771 5772 5770 5767 5768 5770 5767 5766 5762 5758 5771 5773 5773 5772
5814 5809 5805 5802 5801 5797 5792 5787 5783 5781 5783 5783 5784 5780 5779 5785 5788 5789 5787 5787 5785 5782 5780 5777 5775 5774 5773 5773 5773 5771 5771 5773 5776 5774 5771 5767 5769 5768 5769 5767 5772 5778 5780
5822 5817 5812 5806 5802 5801 5797 5792 5788 5785 5785 5786 5784 5784 5784 5786 5788 5787 5787 5789 5791 5788 5783 5781 5779 5778 5777 5776 5776 5774 5773 5775 5776 5777 5773 5774 5773 5775 5773 5771 5774 5775 5782
5825 5820 5817 5813 5807 5805 5804 5800 5795 5790 5790 5789 5789 5788 5787 5787 5786 5786 5788 5792 5793 5795 5792 5786 5784 5784 5781 5781 5778 5775 5775 5776 5776 5773 5776 5777 5777 5779 5778 5776 5778 5777 5786
5832 5826 5823 5819 5813 5810 5808 5806 5803 5795 5796 5794 5793 5792 5790 5792 5791 5791 5795 5794 5797 5799 5797 5792 5790 5788 5787 5784 5781 5780 5780 5780 5778 5777 5776 5781 5782 5783 5783 5780 5778 5778 5787
5836 5834 5830 5825 5820 5816 5814 5812 5809 5801 5800 5799 5796 5795 5795 5795 5797 5797 5796 5797 5798 5801 5799 5798 5795 5792 5790 5788 5785 5785 5783 5783 5781 5782 5780 5780 5786 5787 5787 5786 5786 5780 5776
5837 5837 5834 5831 5829 5824 5820 5813 5809 5808 5805 5802 5800 5799 5799 5798 5797 5797 5797 5798 5800 5799 5802 5800 5800 5797 5795 5792 5788 5788 5786 5785 5787 5788 5786 5783 5789 5789 5789 5790 5790 5789 5785
5840 5842 5842 5841 5837 5831 5824 5821 5816 5810 5807 5808 5807 5805 5805 5803 5799 5799 5799 5798 5799 5802 5801 5802 5802 5801 5798 5796 5792 5790 5792 5788 5788 5789 5789 5786 5788 5792 5795 5794 5793 5793 5792
5847 5847 5847 5842 5837 5834 5831 5827 5824 5819 5818 5818 5813 5811 5809 5806 5804 5801 5802 5801 5800 5802 5803 5804 5803 5803 5802 5800 5796 5793 5794 5791 5790 5791 5790 5790 5793 5792 5793 5795 5794 5796 5798
5849 5847 5844 5843 5842 5840 5837 5836 5832 5831 5828 5822 5818 5814 5812 5810 5810 5809 5806 5804 5802 5803 5805 5805 5804 5804 5804 5802 5800 5797 5796 5795 5795 5795 5795 5795 5795 5795 5798 5798 5799 5802 5801
5840 5842 5843 5847 5846 5845 5842 5840 5839 5839 5835 5828 5824 5821 5818 5818 5817 5815 5811 5809 5807 5806 5806 5807 5806 5806 5806 5805 5803 5800 5799 5798 5798 5798 5799 5799 5800 5800 5800 5799 5800 5802 5801
5828 5834 5840 5844 5847 5845 5846 5841 5839 5839 5840 5835 5830 5828 5826 5823 5820 5817 5815 5813 5812 5812 5811 5810 5809 5809 5809 5809 5805 5803 5802 5800 5799 5801 5802 5803 5804 5805 5805 5807 5808 5808 5806
5820 5828 5836 5841 5842 5844 5846 5845 5843 5844 5843 5840 5837 5834 5825 5823 5822 5820 5817 5815 5815 5814 5814 5814 5813 5812 5814 5814 5809 5806 5805 5803 5802 5802 5805 5808 5808 5807 5806 5806 5806 5807 5808
5808 5819 5828 5838 5846 5849 5852 5849 5850 5847 5842 5840 5835 5832 5828 5824 5823 5822 5818 5817 5817 5816 5815 5815 5816 5816 5817 5816 5811 5808 5807 5808 5807 5808 5808 5812 5819 5817 5816 5814 5811 5810 5810
5798 5810 5823 5834 5846 5855 5856 5849 5845 5843 5840 5836 5833 5834 5830 5827 5824 5822 5822 5820 5819 5819 5817 5817 5818 5819 5822 5819 5814 5809 5809 5810 5812 5814 5815 5816 5819 5821 5821 5822 5822 5823 5823
5789 5804 5816 5831 5841 5847 5857 5853 5845 5842 5839 5836 5835 5837 5835 5829 5826 5825 5824 5823 5820 5820 5822 5822 5821 5822 5824 5822 5818 5811 5812 5814 5816 5819 5821 5822 5823 5824 5821 5820 5820 5822 5825
5783 5797 5816 5832 5839 5848 5857 5855 5848 5844 5842 5842 5843 5840 5837 5833 5830 5829 5826 5826 5824 5825 5826 5826 5828 5827 5827 5825 5819 5816 5818 5820 5822 5825 5826 5825 5826 5825 5821 5821 5821 5821 5823
5778 5802 5821 5832 5847 5853 5859 5857 5852 5852 5857 5844 5839 5835 5834 5834 5832 5828 5827 5827 5827 5828 5827 5828 5830 5831 5830 5829 5823 5818 5822 5826 5828 5830 5833 5836 5832 5827 5823 5819 5821 5822 5822
5778 5811 5827 5836 5852 5857 5858 5855 5852 5853 5848 5844 5841 5836 5833 5833 5831 5827 5826 5827 5826 5824 5826 5825 5828 5833 5833 5830 5827 5823 5822 5826 5829 5832 5839 5839 5834 5828 5825 5822 5821 5817 5813
5761 5792 5813 5827 5839 5846 5850 5842 5840 5840 5835 5835 5835 5832 5831 5831 5833 5826 5825 5824 5825 5828 5826 5829 5830 5835 5840 5838 5832 5827 5824 5823 5825 5833 5836 5830 5828 5824 5822 5820 5818 5812 5811
5741 5764 5783 5797 5812 5826 5830 5832 5833 5836 5835 5830 5829 5829 5824 5825 5829 5828 5828 5827 5829 5829 5833 5834 5836 5839 5842 5844 5845 5834 5826 5822 5821 5823 5827 5828 5824 5821 5820 5820 5814 5810 5806
5730 5743 5758 5772 5782 5795 5804 5817 5827 5828 5830 5828 5829 5827 5824 5819 5816 5818 5815 5825 5831 5831 5834 5838 5839 5838 5838 5844 5845 5842 5837 5833 5828 5827 5825 5823 5820 5817 5814 5812 5809 5805 5801
5717 5730 5742 5756 5765 5776 5787 5801 5813 5823 5823 5821 5825 5830 5825 5821 5816 5810 5804 5793 5797 5802 5815 5824 5831 5833 5829 5831 5831 5828 5825 5822 5817 5813 5815 5812 5810 5807 5804 5801 5797 5795 5792